Wind_Speed
8 7 6 6 7 7 7 7 6 5 6 7 10 13 16 18 19 19 18 18 18 18 17 17 16 15 14 13 12 12 14 15 17 19 19 19 18 15 12 10 9 8 7
11 10 8 8 8 8 9 9 8 7 7 8 10 12 14 17 20 21 22 22 22 22 22 21 21 20 19 17 16 15 15 17 18 20 20 21 20 17 14 11 10 9 8
13 12 12 11 10 10 11 12 11 11 10 10 11 12 14 16 18 20 22 23 24 24 24 24 23 22 21 21 20 18 17 18 18 19 21 22 22 19 16 13 11 10 9
14 15 14 12 12 13 14 15 15 15 14 13 13 14 15 16 18 19 21 22 23 23 24 24 24 23 22 21 21 20 19 19 20 19 20 22 23 21 17 14 12 11 10
16 16 15 14 15 16 17 18 18 17 17 16 16 16 17 17 18 20 20 21 22 23 23 23 23 23 22 21 20 20 20 20 21 21 21 22 22 22 19 16 14 12 11
18 17 17 17 18 20 20 21 21 20 19 19 19 19 19 19 19 20 21 22 22 23 23 22 22 22 22 21 19 19 20 21 22 23 22 23 22 22 21 18 16 14 12
18 17 19 20 22 23 23 23 23 23 22 21 21 20 21 21 21 21 21 22 23 23 23 22 22 22 22 22 20 19 20 21 23 24 24 23 23 22 22 21 19 16 15
19 20 21 22 24 24 25 25 25 25 24 23 23 22 21 22 22 21 21 22 23 23 23 23 23 23 23 23 21 20 20 22 23 25 25 25 24 24 23 22 21 19 17
20 21 22 24 25 25 26 27 27 27 26 26 25 25 24 23 22 23 22 22 23 23 23 23 23 24 24 24 23 21 21 22 23 25 26 26 25 24 24 23 23 22 20
22 22 23 24 25 26 26 27 27 28 28 28 28 27 26 24 23 23 23 23 23 23 23 23 23 24 24 24 24 23 22 22 23 24 25 26 26 26 25 25 24 24 23
23 24 24 24 25 25 26 27 27 28 28 30 30 30 29 27 24 24 24 24 24 23 22 21 22 24 24 24 24 24 24 24 24 24 25 25 26 26 26 26 26 25 25
23 24 24 24 24 25 26 27 27 27 28 29 31 32 32 29 26 25 25 24 24 23 22 21 21 22 24 24 24 24 24 24 24 24 25 25 25 25 25 25 25 25 25
23 24 24 24 24 24 25 26 26 27 27 28 29 31 32 30 28 27 26 25 25 24 23 22 21 21 22 23 23 24 24 24 24 24 24 24 24 24 24 24 24 25 25
23 23 24 23 23 24 25 26 26 25 25 26 27 29 30 28 26 26 26 25 26 25 25 23 22 21 21 21 22 22 23 24 24 24 24 23 23 23 23 23 23 23 23
23 23 23 24 24 24 25 25 25 24 24 24 25 26 27 26 25 23 26 26 26 27 27 26 24 21 20 19 20 20 21 23 24 24 24 24 24 23 23 23 22 22 22
24 24 25 25 25 25 25 25 24 23 23 23 23 23 23 23 22 22 23 25 26 27 28 27 26 23 20 19 19 19 19 21 22 23 24 24 24 23 23 22 22 21 21
25 26 26 26 26 26 25 24 23 22 22 21 20 20 20 20 20 20 21 22 23 25 27 29 28 26 25 23 22 20 19 19 20 21 22 23 23 23 23 23 22 22 21
26 27 27 27 26 25 24 23 22 22 21 21 20 20 19 18 18 18 20 21 22 24 26 28 30 28 28 28 26 24 22 22 22 21 21 22 22 23 23 23 23 23 23
25 25 25 24 24 23 23 22 22 22 21 21 20 19 19 19 19 19 18 20 20 22 24 27 30 30 30 30 29 27 26 25 24 23 22 22 23 24 24 25 25 25 25
23 22 23 23 22 22 21 21 21 21 21 21 21 20 20 19 19 18 18 19 20 21 24 25 28 30 32 33 33 32 31 30 28 26 25 25 25 25 26 26 26 27 27
20 21 21 22 22 22 22 21 21 21 22 22 22 22 21 21 20 19 19 19 20 21 22 24 27 29 30 32 34 35 35 33 31 30 30 29 28 27 28 28 29 30 30
20 21 22 22 22 22 22 22 21 21 22 22 22 22 22 22 22 21 21 21 21 21 22 23 24 26 28 30 34 36 37 36 35 35 34 32 31 31 31 30 31 31 31
20 21 21 22 22 23 23 22 22 22 22 22 22 22 22 22 22 22 22 22 22 22 22 23 23 24 25 27 30 33 36 37 37 37 36 36 35 35 34 32 32 32 32
20 21 22 22 22 23 23 23 22 22 22 22 22 22 22 22 21 21 22 22 22 23 24 24 24 24 24 25 27 31 34 37 38 39 39 38 38 37 36 34 34 34 34
20 21 21 21 21 21 22 21 21 21 21 21 21 21 21 22 21 21 22 22 22 22 23 23 23 23 23 24 24 26 30 33 36 38 39 39 39 40 38 37 36 36 36
20 20 20 20 19 19 19 20 20 20 20 20 20 21 21 21 21 22 22 22 22 22 22 23 23 23 23 23 23 23 24 26 29 33 37 38 39 40 39 39 38 37 37
Wind_Direction
298 305 319 335 348 356 356 346 334 316 292 268 255 248 242 238 237 237 238 240 242 244 246 250 253 257 259 262 263 261 253 241 233 225 217 214 213 215 218 223 227 226 227
282 284 294 306 318 329 330 328 318 306 295 282 268 257 252 248 244 242 241 242 244 247 249 252 256 258 258 258 258 259 255 246 239 231 221 216 213 212 216 222 227 228 228
277 277 283 290 298 305 310 311 310 302 292 285 278 270 262 258 253 248 246 245 245 247 250 252 254 256 256 255 254 254 253 247 241 234 226 218 215 214 216 221 226 229 230
275 273 275 281 286 289 294 296 297 296 294 289 282 276 270 266 262 256 252 249 247 246 248 249 251 251 252 251 250 250 250 246 241 235 228 222 218 215 215 220 226 231 234
274 271 270 272 276 280 284 286 286 287 288 289 287 282 276 270 265 261 256 252 248 246 246 247 247 247 246 247 247 247 246 243 239 235 230 222 218 217 218 222 228 234 238
274 270 268 270 273 277 279 279 279 280 281 283 284 283 280 275 267 262 258 253 248 245 244 244 243 242 241 241 245 245 243 240 236 233 230 226 221 221 223 227 232 238 243
268 265 266 269 273 276 279 280 280 280 278 279 278 278 279 276 271 263 258 252 248 245 243 241 239 239 238 237 242 244 240 237 234 233 232 230 227 227 229 233 237 242 246
262 264 267 271 273 275 276 277 278 280 278 278 279 276 274 275 271 264 256 251 248 245 242 240 238 236 236 236 239 242 240 235 233 233 234 234 232 233 236 239 242 245 248
262 265 268 271 272 273 273 273 275 275 277 278 280 277 273 270 270 262 254 250 246 245 243 240 237 235 234 235 238 240 239 237 235 235 236 235 235 237 241 244 245 247 249
264 266 268 271 272 273 272 272 272 273 274 275 276 276 271 266 263 261 253 248 247 245 244 241 237 234 234 235 237 238 238 237 236 236 236 236 237 240 243 246 248 248 248
268 272 273 274 275 275 274 273 273 273 271 271 272 272 270 264 258 259 254 249 247 245 245 243 239 236 235 235 236 236 237 236 237 237 238 239 240 241 244 246 247 246 245
271 274 276 278 279 279 279 277 276 275 272 270 269 269 269 264 259 257 251 247 246 244 244 243 240 238 237 236 235 235 235 236 237 239 239 240 241 242 244 244 244 244 243
274 277 279 281 283 283 283 282 280 278 275 271 269 269 269 265 261 253 248 245 243 242 242 242 240 239 238 237 236 235 235 235 237 239 240 241 241 242 243 244 245 245 244
277 279 282 285 287 288 287 285 284 282 278 274 269 268 270 266 257 251 246 244 241 239 239 240 239 239 238 237 236 236 235 235 236 238 239 240 241 242 244 246 247 247 245
283 285 288 290 290 290 289 288 286 284 280 275 272 270 270 265 256 249 244 243 241 237 236 238 239 238 238 238 237 236 235 235 236 238 240 240 241 243 245 247 248 247 246
288 290 292 293 292 289 288 287 286 284 281 277 274 270 269 264 257 249 246 243 240 238 236 237 238 238 238 238 239 238 237 236 236 237 238 239 241 243 245 246 246 245 244
289 291 292 292 292 289 286 284 283 283 279 276 274 271 267 266 256 249 245 243 240 239 237 236 237 238 237 238 239 240 241 240 238 238 238 239 240 241 243 243 244 243 244
288 289 289 290 290 288 284 282 280 279 277 273 271 269 267 264 261 256 247 244 244 240 238 237 236 237 237 238 239 240 242 243 243 242 241 241 242 242 243 243 243 243 244
285 286 287 288 286 285 283 280 278 276 274 271 268 267 265 261 258 255 252 248 245 242 240 240 238 239 239 239 238 239 242 244 245 245 246 246 246 245 245 245 245 246 247
281 281 283 285 285 284 283 281 277 275 273 270 266 264 262 259 258 255 254 251 248 247 246 245 242 242 243 240 239 241 243 245 246 247 248 249 250 250 250 250 249 249 249
279 279 280 283 285 284 283 282 280 277 274 271 267 263 261 259 257 256 254 253 251 251 250 250 247 246 246 242 241 242 243 245 246 246 247 250 252 253 253 253 252 251 251
281 280 281 283 285 285 283 282 280 278 275 272 269 264 261 260 258 257 255 253 253 252 252 250 249 248 248 246 247 246 245 245 246 248 250 251 251 252 253 253 253 253 253
284 284 284 285 285 284 283 281 279 277 275 272 269 265 261 258 258 257 256 254 252 252 251 250 252 250 250 249 249 248 247 247 249 250 251 251 252 252 253 255 256 255 255
288 286 286 285 284 283 283 281 279 276 275 271 268 266 263 259 257 256 255 254 252 251 251 251 252 251 252 253 253 250 248 249 250 251 252 252 255 254 254 256 258 257 257
289 287 287 286 284 283 282 281 278 276 274 271 267 265 264 261 258 257 255 254 252 251 251 252 253 252 252 253 253 252 250 249 249 251 252 253 256 257 257 258 258 258 258
291 289 287 284 282 281 281 280 278 275 273 270 268 266 264 262 260 258 257 256 255 253 252 252 252 253 252 253 254 254 253 252 251 251 252 253 255 257 258 259 259 258 259
Height
5879 5879 5877 5876 5875 5874 5873 5872 5871 5871 5871 5871 5871 5871 5872 5873 5874 5875 5876 5878 5879 5880 5882 5884 5885 5887 5888 5889 5890 5890 5891 5892 5893 5894 5896 5898 5900 5902 5904 5905 5906 5907 5907
5876 5876 5875 5874 5873 5872 5871 5871 5870 5869 5868 5868 5868 5868 5869 5870 5870 5871 5872 5873 5875 5876 5877 5879 5881 5883 5884 5886 5887 5888 5888 5889 5890 5891 5893 5895 5897 5900 5901 5903 5904 5905 5905
5873 5873 5872 5871 5870 5870 5869 5868 5867 5867 5866 5865 5865 5865 5865 5866 5866 5867 5868 5869 5870 5871 5872 5874 5876 5878 5880 5881 5883 5884 5885 5886 5887 5889 5890 5892 5894 5897 5899 5900 5901 5902 5903
5869 5869 5868 5868 5867 5867 5866 5865 5865 5864 5863 5863 5862 5862 5862 5862 5863 5863 5864 5864 5865 5866 5867 5869 5871 5873 5875 5877 5878 5880 5882 5883 5884 5886 5887 5889 5891 5894 5896 5897 5899 5900 5900
5864 5864 5864 5864 5864 5863 5863 5862 5861 5861 5860 5859 5858 5858 5858 5858 5859 5859 5860 5860 5861 5862 5863 5864 5866 5868 5870 5872 5874 5875 5877 5879 5881 5882 5884 5886 5888 5890 5892 5894 5896 5897 5898
5860 5860 5860 5860 5859 5859 5858 5858 5857 5857 5856 5856 5855 5854 5854 5854 5854 5855 5856 5856 5857 5857 5858 5859 5861 5863 5865 5867 5869 5871 5873 5875 5877 5879 5881 5883 5885 5887 5889 5891 5892 5893 5894
5856 5855 5855 5855 5855 5854 5853 5852 5852 5851 5851 5851 5851 5850 5850 5849 5849 5850 5851 5852 5852 5853 5854 5855 5856 5858 5860 5863 5865 5867 5868 5871 5873 5875 5877 5880 5882 5884 5886 5887 5889 5890 5891
5851 5851 5851 5850 5850 5849 5848 5847 5846 5846 5845 5845 5845 5845 5845 5845 5844 5845 5846 5847 5848 5848 5849 5851 5852 5854 5856 5858 5861 5862 5864 5866 5869 5871 5874 5876 5878 5880 5882 5884 5885 5887 5888
5846 5846 5846 5845 5845 5844 5843 5842 5841 5840 5840 5839 5839 5839 5839 5839 5839 5839 5841 5842 5843 5844 5844 5846 5847 5849 5851 5854 5856 5858 5860 5862 5864 5867 5869 5872 5874 5876 5878 5880 5881 5883 5884
5841 5840 5840 5839 5838 5838 5837 5836 5835 5834 5834 5833 5833 5833 5833 5833 5833 5834 5835 5836 5838 5839 5840 5841 5843 5844 5846 5849 5851 5853 5855 5858 5860 5862 5864 5867 5869 5872 5874 5875 5877 5878 5880
5834 5834 5833 5832 5832 5831 5830 5830 5829 5828 5828 5827 5826 5826 5826 5826 5827 5828 5829 5831 5832 5834 5835 5836 5838 5839 5841 5843 5846 5848 5850 5853 5855 5858 5860 5862 5864 5866 5868 5870 5872 5873 5875
5828 5827 5827 5826 5825 5824 5824 5823 5822 5822 5821 5820 5820 5819 5819 5819 5821 5822 5824 5825 5827 5829 5830 5832 5833 5834 5836 5838 5840 5842 5845 5848 5850 5853 5855 5857 5859 5861 5863 5865 5866 5868 5870
5822 5821 5821 5819 5819 5818 5817 5817 5816 5815 5814 5813 5813 5812 5811 5812 5813 5815 5817 5819 5821 5823 5825 5827 5828 5829 5831 5833 5835 5837 5839 5842 5845 5848 5850 5852 5854 5856 5858 5860 5861 5863 5864
5816 5815 5815 5813 5813 5812 5811 5810 5809 5808 5807 5807 5806 5806 5805 5805 5806 5808 5811 5813 5815 5818 5820 5821 5823 5825 5826 5828 5830 5832 5834 5837 5840 5842 5845 5847 5849 5851 5853 5855 5856 5858 5859
5810 5809 5808 5807 5807 5806 5805 5804 5803 5802 5801 5800 5799 5799 5799 5798 5800 5801 5804 5806 5809 5812 5814 5816 5818 5820 5822 5824 5826 5827 5830 5832 5834 5837 5840 5842 5844 5846 5848 5850 5851 5852 5854
5803 5803 5802 5801 5801 5800 5799 5798 5797 5796 5795 5794 5793 5793 5793 5793 5793 5795 5797 5800 5802 5805 5808 5811 5813 5816 5818 5820 5822 5823 5825 5827 5829 5832 5834 5836 5839 5841 5843 5845 5846 5848 5849
5798 5797 5796 5796 5795 5794 5793 5792 5791 5790 5789 5789 5788 5788 5788 5788 5788 5790 5792 5794 5796 5799 5802 5805 5808 5811 5813 5815 5817 5819 5821 5823 5825 5827 5829 5831 5833 5835 5837 5839 5841 5843 5844
5793 5792 5791 5789 5789 5788 5787 5786 5785 5784 5784 5784 5783 5783 5783 5783 5784 5785 5787 5789 5791 5793 5796 5799 5802 5805 5807 5810 5813 5815 5817 5819 5820 5822 5824 5826 5828 5830 5832 5834 5836 5837 5839
5787 5786 5785 5783 5782 5781 5780 5780 5779 5779 5779 5778 5778 5778 5778 5779 5780 5781 5782 5784 5785 5787 5790 5792 5795 5798 5801 5804 5807 5809 5811 5813 5815 5817 5820 5822 5823 5825 5826 5828 5830 5832 5833
5781 5780 5779 5778 5776 5775 5774 5774 5773 5773 5773 5773 5773 5773 5773 5774 5775 5776 5777 5778 5780 5782 5784 5786 5788 5791 5794 5797 5800 5803 5805 5807 5810 5812 5814 5816 5818 5819 5821 5823 5824 5826 5827
5776 5775 5773 5772 5770 5769 5768 5767 5767 5767 5767 5767 5767 5767 5768 5769 5769 5770 5771 5773 5774 5776 5778 5780 5782 5784 5786 5789 5793 5795 5798 5800 5803 5805 5807 5809 5811 5814 5815 5816 5818 5819 5820
5770 5769 5768 5766 5764 5763 5762 5761 5761 5760 5760 5760 5761 5761 5762 5763 5764 5765 5766 5767 5769 5770 5772 5773 5775 5777 5779 5781 5784 5787 5789 5793 5795 5798 5800 5802 5804 5806 5807 5809 5811 5812 5813
5764 5763 5761 5760 5758 5757 5756 5755 5754 5754 5754 5754 5754 5755 5755 5756 5757 5758 5760 5761 5762 5764 5765 5767 5768 5770 5772 5774 5776 5778 5781 5784 5786 5788 5791 5793 5795 5797 5799 5801 5803 5805 5806
5759 5757 5755 5754 5752 5751 5749 5748 5748 5748 5747 5747 5748 5748 5749 5750 5751 5752 5753 5755 5756 5758 5759 5761 5762 5763 5765 5766 5768 5770 5772 5774 5777 5778 5781 5784 5786 5788 5790 5793 5794 5796 5797
5753 5751 5749 5748 5746 5745 5743 5742 5742 5741 5741 5741 5741 5742 5742 5743 5744 5745 5747 5748 5749 5751 5752 5754 5755 5757 5758 5759 5761 5762 5764 5766 5768 5769 5771 5774 5776 5777 5781 5783 5785 5786 5787
5747 5745 5743 5742 5740 5739 5738 5737 5736 5735 5735 5735 5735 5735 5736 5736 5737 5738 5740 5741 5743 5744 5746 5747 5749 5750 5751 5753 5754 5755 5756 5758 5759 5761 5762 5765 5767 5768 5771 5772 5774 5776 5777